Flag for Antigua and Barbuda Weather past 2 weeks in Saint John's, Antigua and Barbuda

Now
81 °F

Scattered clouds.


Feels Like: 83 °F
Forecast: 76 / 81 °F
Wind: 18 mph from East

Location: Vc Bird International Antigua Airport


UV Index: 10 (Very high)

Visibility: N/A


Pressure: 30.01 "Hg

Humidity: 66%

Dew point: 68 °F

Location of Saint John'sLocation

Historic Weather in Saint John's

°F

Saint John's temperature yesterday

Maximum temperature yesterday: 84 °F (at 6:00 PM)
Minimum temperature yesterday: 72 °F (at 5:00 AM)
Average temperature yesterday: 78 °F

Past Weeks' High & Low Weather Summary

 TemperatureHumidityPressure
High84 °F (Apr 8, 12:00 PM)94% (Apr 13, 3:00 AM)30.12 "Hg (Apr 13, 3:00 AM)
Low70 °F (Apr 13, 3:00 AM)51% (Apr 17, 6:00 PM)29.89 "Hg (Apr 15, 3:00 PM)
Average78 °F72%30.02 "Hg
* Reported Apr 3 4:00 PM — Apr 18 4:00 PM, Saint John's, Weather by CustomWeather, © 2014

Note: Actual official high and low records may vary slightly from our data, if they occured in-between our weather recording intervals... More about our weather records

Advertising

Historic Weather Conditions — Data for Previous 24 hours

 ConditionsComfort  
Time TempWeatherWind HumidityBarometerVisibility
4:00 PM
Apr 18
81 °FScattered clouds.18 mph66%30.01 "HgN/A
3:00 PM81 °FScattered clouds.17 mph70%30.01 "HgN/A
2:00 PM82 °FScattered clouds.18 mph66%30.01 "HgN/A
1:00 PM82 °FScattered clouds.18 mph66%30.04 "HgN/A
12:00 PM82 °FScattered clouds.14 mph66%30.04 "HgN/A
11:00 AM79 °FSprinkles. Scattered clouds.13 mph74%30.04 "HgN/A
10:00 AM81 °FScattered clouds.14 mph66%30.04 "HgN/A
9:00 AM81 °FScattered clouds.14 mph66%30.04 "HgN/A
8:00 AM81 °FPassing clouds.14 mph66%30.04 "HgN/A
7:00 AM79 °FScattered clouds.13 mph70%30.04 "HgN/A
6:00 AM77 °FScattered clouds.12 mph74%30.01 "HgN/A
5:00 AM77 °FSprinkles. Partly cloudy.13 mph69%30.01 "HgN/A
4:00 AM77 °FPassing clouds.14 mph69%29.98 "HgN/A
3:00 AM77 °FPassing clouds.13 mph69%29.98 "HgN/A
2:00 AM77 °FPartly cloudy.14 mph74%30.01 "HgN/A
1:00 AM77 °FPassing clouds.13 mph74%30.01 "HgN/A
12:00 AM77 °FPassing clouds.15 mph69%30.04 "HgN/A
11:00 PM
Apr 17
77 °FPartly cloudy.12 mph79%30.04 "HgN/A
10:00 PM77 °FPartly cloudy.13 mph79%30.04 "HgN/A
9:00 PM79 °FPassing clouds.13 mph70%30.04 "HgN/A
8:00 PM79 °FPassing clouds.14 mph70%30.01 "HgN/A
7:00 PM79 °FPassing clouds.15 mph70%30.01 "HgN/A
6:00 PM84 °FScattered clouds.12 mph51%30.01 "HgN/A
5:00 PM79 °FScattered clouds.13 mph70%30.01 "HgN/A
Weather by CustomWeather, © 2014

See weather overview